EW6005 Weather Reports


Display with metric or nautical units.
time (UTC)temp
F
wind
direction
speed
MPH
gust
MPH
rain 1hr
in
rain 24hr
in
rain mn
in
humidity
%
barometer
mb
20260505000128 79 0 3.0 10.0 0.00 0.00 0.00 72 995.6
20260504235846 79 0 4.0 10.0 0.00 0.00 0.00 71 995.7
20260504235129 79 0 3.0 10.0 0.00 0.00 0.00 71 995.7
20260504234629 79 0 3.0 10.0 0.00 0.00 0.00 71 995.7
20260504234127 79 0 3.0 9.0 0.00 0.00 0.00 70 995.8
20260504233627 79 0 3.0 8.0 0.00 0.00 0.00 70 995.7
20260504233121 80 0 3.0 6.0 0.00 0.00 0.00 70 995.7
20260504232621 80 0 4.0 14.0 0.00 0.00 0.00 69 995.7
20260504232123 80 0 4.0 14.0 0.00 0.00 0.00 69 995.7
20260504231621 80 0 3.0 10.0 0.00 0.00 0.00 68 995.9
20260504231121 80 0 3.0 9.0 0.00 0.00 0.00 69 995.9
20260504230620 80 0 3.0 9.0 0.00 0.00 0.00 68 996.0
20260504230120 80 0 3.0 10.0 0.00 0.00 0.00 68 996.1
20260504225621 80 0 3.0 10.0 0.00 0.00 0.00 68 996.1
20260504225121 80 0 3.0 8.0 0.00 0.00 0.00 68 996.2
20260504224617 80 0 4.0 10.0 0.00 0.00 0.00 67 996.1
20260504224336 80 0 4.0 10.0 0.00 0.00 0.00 67 996.1
20260504223617 80 0 3.0 9.0 0.00 0.00 0.00 67 996.2
20260504223115 81 0 3.0 15.0 0.00 0.00 0.00 67 996.3
20260504222615 81 84 3.0 15.0 0.00 0.00 0.00 66 996.3
20260504222115 80 84 3.0 8.0 0.00 0.00 0.00 67 996.3
20260504221614 80 96 3.0 8.0 0.00 0.00 0.00 66 996.5
20260504221116 80 90 3.0 9.0 0.00 0.00 0.00 66 996.5
20260504220617 81 67 3.0 9.0 0.00 0.00 0.00 66 996.6
20260504220337 81 0 2.0 8.0 0.00 0.00 0.00 66 996.6
20260504215615 81 0 3.0 10.0 0.00 0.00 0.00 66 996.6
20260504215110 81 70 3.0 10.0 0.00 0.00 0.00 66 996.6
20260504214609 81 81 4.0 9.0 0.00 0.00 0.00 65 996.6
20260504214108 81 105 4.0 9.0 0.00 0.00 0.00 65 996.7
20260504213606 81 85 3.0 9.0 0.00 0.00 0.00 65 997.0
20260504213107 81 92 2.0 8.0 0.00 0.00 0.00 65 996.9
20260504212607 81 38 2.0 6.0 0.00 0.00 0.00 65 996.9
20260504212323 81 85 2.0 8.0 0.00 0.00 0.00 65 997.0
20260504211603 81 88 2.0 8.0 0.00 0.00 0.00 64 997.1
20260504211103 81 67 2.0 6.0 0.00 0.00 0.00 64 997.1
20260504210832 81 81 2.0 8.0 0.00 0.00 0.00 65 997.2
20260504210101 81 67 3.0 8.0 0.00 0.00 0.00 65 997.3
20260504205602 81 78 3.0 10.0 0.00 0.00 0.00 65 997.3
20260504205101 81 0 2.0 10.0 0.00 0.00 0.00 64 997.3
20260504204600 81 80 2.0 5.0 0.00 0.00 0.00 64 997.4
20260504204059 81 66 2.0 5.0 0.00 0.00 0.00 64 997.6
20260504203557 81 64 2.0 6.0 0.00 0.00 0.00 65 997.7
20260504203055 81 0 2.0 6.0 0.00 0.00 0.00 65 997.7
20260504202811 81 0 2.0 12.0 0.00 0.00 0.00 64 997.8
20260504202052 81 65 2.0 12.0 0.00 0.00 0.00 65 997.9
20260504201549 81 0 1.0 5.0 0.00 0.00 0.00 66 998.1
20260504201539 81 0 2.0 10.0 0.00 0.00 0.00 66 998.2
20260504200545 81 0 2.0 10.0 0.00 0.00 0.00 64 998.3
20260504200302 81 0 2.0 6.0 0.00 0.00 0.00 65 998.4
20260504195543 81 0 2.0 6.0 0.00 0.00 0.00 65 998.4
20260504195042 81 0 2.0 8.0 0.00 0.00 0.00 65 998.5
20260504194803 81 55 2.0 8.0 0.00 0.00 0.00 65 998.7
20260504194038 81 0 2.0 6.0 0.00 0.00 0.00 65 998.7
20260504193536 81 38 2.0 6.0 0.00 0.00 0.00 65 998.7
20260504193136 81 0 2.0 6.0 0.00 0.00 0.00 64 998.8
20260504192035 81 59 2.0 8.0 0.00 0.00 0.00 65 998.9
20260504191754 81 0 2.0 8.0 0.00 0.00 0.00 63 999.0
20260504191032 81 57 2.0 8.0 0.00 0.00 0.00 65 998.9
20260504190533 80 0 3.0 9.0 0.00 0.00 0.00 64 999.2
20260504190033 80 0 3.0 9.0 0.00 0.00 0.00 63 999.4
20260504185755 80 0 3.0 14.0 0.00 0.00 0.00 64 999.4
20260504185029 80 0 4.0 14.0 0.00 0.00 0.00 64 999.5
20260504184528 80 0 3.0 10.0 0.00 0.00 0.00 63 999.4
20260504184029 80 0 3.0 9.0 0.00 0.00 0.00 65 999.5
20260504183529 80 0 3.0 9.0 0.00 0.00 0.00 65 999.6
20260504183030 80 0 3.0 6.0 0.00 0.00 0.00 66 999.5
20260504182525 80 63 4.0 12.0 0.00 0.00 0.00 65 999.6
20260504182013 80 0 3.0 12.0 0.00 0.00 0.00 64 999.7
20260504181513 80 0 3.0 13.0 0.00 0.00 0.00 65 999.7
20260504181013 80 0 3.0 13.0 0.00 0.00 0.00 65 999.7
20260504180512 80 0 3.0 10.0 0.00 0.00 0.00 66 999.8
20260504180013 80 0 3.0 10.0 0.00 0.00 0.00 65 999.9
20260504175513 80 63 2.0 8.0 0.00 0.00 0.00 66 999.8
20260504175013 79 63 3.0 8.0 0.00 0.00 0.00 66 1000.0
20260504174513 79 59 3.0 10.0 0.00 0.00 0.00 66 1000.0
20260504174013 78 63 2.0 10.0 0.00 0.00 0.00 67 1000.1
20260504173513 78 65 2.0 9.0 0.00 0.00 0.00 67 1000.1
20260504173013 78 85 3.0 11.0 0.00 0.00 0.00 66 1000.2
20260504172512 78 59 4.0 11.0 0.00 0.00 0.00 65 1000.2
20260504172013 78 55 4.0 10.0 0.00 0.00 0.00 65 1000.3
20260504171511 79 0 3.0 11.0 0.00 0.00 0.00 66 1000.5
20260504171012 78 0 4.0 11.0 0.00 0.00 0.00 66 1000.6
20260504170514 78 0 3.0 10.0 0.00 0.00 0.00 67 1000.5
20260504150959 73 0 2.0 14.0 0.00 0.00 0.00 73 1001.6
20260504150501 73 0 2.0 10.0 0.00 0.00 0.00 75 1001.5
20260504141220 68 0 1.0 4.0 0.00 0.00 0.00 80 1001.6
20260504140502 67 0 1.0 4.0 0.00 0.00 0.00 81 1001.6
20260504130714 60 0 0.0 2.0 0.00 0.00 0.00 90 1001.3
20260504130225 59 0 0.0 0.0 0.00 0.00 0.00 91 1001.4
20260504110424 57 0 0.0 0.0 0.00 0.00 0.00 89 1000.9
20260504100406 58 0 0.0 0.0 0.00 0.00 0.00 87 1001.3
20260504081841 60 0 0.0 0.0 0.00 0.00 0.00 83 1001.9
20260504081341 60 0 0.0 1.0 0.00 0.00 0.00 82 1001.9
20260504080841 60 0 0.0 1.0 0.00 0.00 0.00 82 1001.8
20260504080339 60 0 0.0 0.0 0.00 0.00 0.00 82 1001.9
20260504070338 61 0 0.0 0.0 0.00 0.00 0.00 80 1003.0
20260504050333 65 0 1.0 3.0 0.00 0.00 0.00 72 1003.7
20260504045830 65 0 1.0 3.0 0.00 0.00 0.00 71 1003.8
20260504045329 65 0 1.0 2.0 0.00 0.00 0.00 71 1003.8
20260504044827 65 0 0.0 2.0 0.00 0.00 0.00 71 1003.7
20260504044326 65 0 0.0 1.0 0.00 0.00 0.00 71 1003.8
20260504043824 65 0 1.0 2.0 0.00 0.00 0.00 70 1003.9
20260504043550 66 0 1.0 2.0 0.00 0.00 0.00 70 1004.0
20260504042820 66 0 0.0 2.0 0.00 0.00 0.00 70 1003.9
20260504042539 66 0 1.0 3.0 0.00 0.00 0.00 70 1003.9
20260504041816 66 0 1.0 3.0 0.00 0.00 0.00 69 1003.9
20260504041316 66 0 1.0 3.0 0.00 0.00 0.00 69 1003.9
20260504041307 66 0 1.0 3.0 0.00 0.00 0.00 69 1003.9
20260504040316 66 0 1.0 3.0 0.00 0.00 0.00 69 1003.9
20260504035811 66 0 1.0 4.0 0.00 0.00 0.00 68 1003.9
20260504035309 66 0 2.0 4.0 0.00 0.00 0.00 68 1004.0
20260504034810 66 0 1.0 3.0 0.00 0.00 0.00 68 1003.9
20260504034308 67 0 1.0 2.0 0.00 0.00 0.00 68 1003.8
20260504033808 67 0 0.0 1.0 0.00 0.00 0.00 68 1003.9
20260504033301 67 0 0.0 0.0 0.00 0.00 0.00 69 1003.9
20260504032757 67 0 0.0 0.0 0.00 0.00 0.00 69 1003.8
20260504032258 67 0 0.0 0.0 0.00 0.00 0.00 68 1003.9
20260504032022 67 0 0.0 2.0 0.00 0.00 0.00 67 1003.8
20260504031255 67 0 1.0 3.0 0.00 0.00 0.00 67 1003.8
20260504030755 67 0 1.0 3.0 0.00 0.00 0.00 67 1003.8
20260504030255 67 0 1.0 4.0 0.00 0.00 0.00 67 1003.7
20260504030020 67 0 1.0 4.0 0.00 0.00 0.00 68 1003.7
20260504025251 67 0 1.0 3.0 0.00 0.00 0.00 68 1003.7
20260504024749 67 0 1.0 2.0 0.00 0.00 0.00 68 1003.6
20260504024250 67 0 1.0 3.0 0.00 0.00 0.00 69 1003.6
20260504023746 67 0 1.0 3.0 0.00 0.00 0.00 69 1003.5
20260504023243 66 0 0.0 2.0 0.00 0.00 0.00 69 1003.5
20260504022744 67 0 0.0 0.0 0.00 0.00 0.00 70 1003.4
20260504022244 67 0 0.0 0.0 0.00 0.00 0.00 69 1003.5
20260504021745 67 0 0.0 0.0 0.00 0.00 0.00 68 1003.5
20260504021241 67 0 0.0 0.0 0.00 0.00 0.00 68 1003.4
20260504020739 68 0 0.0 0.0 0.00 0.00 0.00 67 1003.3
20260504020500 68 0 0.0 0.0 0.00 0.00 0.00 66 1003.2
20260504015735 68 0 0.0 0.0 0.00 0.00 0.00 65 1003.2
20260504015237 69 0 0.0 0.0 0.00 0.00 0.00 65 1003.1
20260504015220 69 0 0.0 0.0 0.00 0.00 0.00 64 1003.0
20260504014228 69 0 0.0 0.0 0.00 0.00 0.00 64 1003.0
20260504013727 70 0 0.0 0.0 0.00 0.00 0.00 65 1003.0
20260504013227 70 0 0.0 0.0 0.00 0.00 0.00 64 1003.0
20260504012727 71 0 0.0 1.0 0.00 0.00 0.00 63 1003.0
20260504012227 71 0 0.0 1.0 0.00 0.00 0.00 62 1003.0
20260504011727 71 0 0.0 0.0 0.00 0.00 0.00 61 1002.8
20260504011228 72 0 0.0 0.0 0.00 0.00 0.00 60 1002.7
20260504010724 72 0 0.0 0.0 0.00 0.00 0.00 60 1002.7
20260504010447 73 0 0.0 0.0 0.00 0.00 0.00 59 1002.8
20260504005717 73 0 0.0 0.0 0.00 0.00 0.00 58 1002.8
20260504005215 74 0 0.0 0.0 0.00 0.00 0.00 57 1002.8
20260504004715 74 0 0.0 0.0 0.00 0.00 0.00 55 1002.9
20260504004215 75 0 0.0 0.0 0.00 0.00 0.00 54 1002.7
20260504003715 75 0 0.0 0.0 0.00 0.00 0.00 54 1002.8
20260504003215 76 0 0.0 1.0 0.00 0.00 0.00 54 1002.9
20260504002716 76 0 0.0 1.0 0.00 0.00 0.00 53 1002.9
20260504002433 76 0 0.0 0.0 0.00 0.00 0.00 53 1003.0
20260504001716 76 0 0.0 3.0 0.00 0.00 0.00 53 1003.0
20260504001211 77 0 0.0 3.0 0.00 0.00 0.00 51 1002.9
20260504000711 77 0 1.0 2.0 0.00 0.00 0.00 52 1002.9